sat.trackr.live / text

‹ back to catalog

STARLINK-34134

NORAD 63899 · 2025-095K

PAYLOAD ACTIVE UNKNOWN

§ Identity

Operator
Country
US
Launch date
2025-05-10
Launch site
AFETR
Launch vehicle
Mass (kg)
RCS (m²)

Purposes: comms

External: N2YO · Heavens-Above · Gunter

§ Orbital elements

Epoch: 2026-09-20T01:33:25.966368Z

Period
94.27 min
Inclination
42.9997°
Eccentricity
0.0001325
Mean motion
15.27592628 rev/d
Perigee alt
482.1 km
Apogee alt
483.9 km
Semi-major
6,861.1 km
B*
4.1129e-4
RAAN
158.5991°
Arg perigee
262.9710°
Mean anomaly
97.0991°
Rev number
7,751

§ Raw data

STARLINK-341341 63899U 25095K   26263.06488387  .00011077  00000+0  41129-3 0  99942 63899  42.9997 158.5991 0001325 262.9710  97.0991 15.27592628 77515

JSON: /api/v1/satellites/63899 · /tle

For live sub-satellite position, see the globe view (requires WebGL).

§ Visibility from observer

Set your observer location to see the next 7 days of passes ≥ 10°. The values pass through the URL so the page stays shareable.

No JS? Fill the form by hand. The geolocation button needs JavaScript.